| time (UTC) | temp F | wind direction | speed MPH | gust MPH | rain 1hr in | rain 24hr in | rain mn in | humidity % | barometer mb |
| 20260902005018 | 80 | 327 | 0.0 | 2.0 | 0.00 | 0.03 | 0.03 | 88 | 1011.7 |
| 20260902004604 | 80 | 11 | 1.0 | 4.0 | 0.00 | 0.03 | 0.03 | 87 | 1011.9 |
| 20260902004558 | 80 | 328 | 0.0 | 3.0 | 0.00 | 0.03 | 0.03 | 88 | 1011.8 |
| 20260902004549 | 80 | 327 | 1.0 | 3.0 | 0.00 | 0.03 | 0.03 | 88 | 1011.9 |
| 20260902004532 | 80 | 327 | 0.0 | 3.0 | 0.00 | 0.03 | 0.03 | 88 | 1011.8 |
| 20260902003507 | 81 | 21 | 2.0 | 4.0 | 0.00 | 0.03 | 0.03 | 87 | 1011.9 |
| 20260902003030 | 81 | 42 | 1.0 | 7.0 | 0.00 | 0.03 | 0.03 | 88 | 1011.9 |
| 20260902003005 | 81 | 29 | 2.0 | 7.0 | 0.00 | 0.03 | 0.03 | 88 | 1012.0 |
| 20260902002504 | 81 | 44 | 1.0 | 7.0 | 0.00 | 0.03 | 0.03 | 88 | 1012.0 |
| 20260902002004 | 81 | 55 | 0.0 | 2.0 | 0.00 | 0.03 | 0.03 | 88 | 1012.0 |
| 20260902001532 | 81 | 82 | 0.0 | 1.0 | 0.00 | 0.03 | 0.03 | 88 | 1011.9 |
| 20260902001505 | 81 | 82 | 0.0 | 1.0 | 0.00 | 0.03 | 0.03 | 88 | 1012.0 |
| 20260902001003 | 81 | 82 | 0.0 | 1.0 | 0.00 | 0.03 | 0.03 | 88 | 1012.0 |
| 20260902000503 | 81 | 82 | 0.0 | 1.0 | 0.00 | 0.03 | 0.03 | 88 | 1012.0 |
| 20260902000009 | 81 | 82 | 0.0 | 0.0 | 0.00 | 0.03 | 0.03 | 88 | 1011.9 |
| 20260902000004 | 81 | 82 | 0.0 | 0.0 | 0.00 | 0.03 | 0.03 | 88 | 1012.0 |
| 20260901235503 | 81 | 82 | 0.0 | 1.0 | 0.00 | 0.03 | 0.03 | 89 | 1012.0 |
| 20260901235003 | 82 | 82 | 0.0 | 2.0 | 0.00 | 0.03 | 0.03 | 89 | 1012.0 |
| 20260901234507 | 81 | 83 | 0.0 | 5.0 | 0.00 | 0.03 | 0.03 | 89 | 1011.7 |
| 20260901234503 | 82 | 83 | 1.0 | 5.0 | 0.00 | 0.03 | 0.03 | 89 | 1011.8 |
| 20260901234002 | 82 | 104 | 2.0 | 5.0 | 0.00 | 0.03 | 0.03 | 89 | 1011.8 |
| 20260901233504 | 82 | 92 | 2.0 | 3.0 | 0.00 | 0.03 | 0.03 | 89 | 1011.8 |
| 20260901233011 | 82 | 95 | 1.0 | 3.0 | 0.00 | 0.03 | 0.03 | 88 | 1011.6 |
| 20260901233003 | 83 | 95 | 2.0 | 5.0 | 0.00 | 0.03 | 0.03 | 88 | 1011.7 |
| 20260901232502 | 83 | 80 | 3.0 | 6.0 | 0.00 | 0.03 | 0.03 | 88 | 1011.7 |
| 20260901232002 | 83 | 80 | 2.0 | 6.0 | 0.00 | 0.03 | 0.03 | 88 | 1011.7 |
| 20260901231600 | 83 | 90 | 1.0 | 4.0 | 0.00 | 0.03 | 0.03 | 87 | 1011.5 |
| 20260901231501 | 83 | 82 | 1.0 | 4.0 | 0.00 | 0.03 | 0.03 | 87 | 1011.6 |
| 20260901231002 | 83 | 24 | 2.0 | 6.0 | 0.00 | 0.03 | 0.03 | 87 | 1011.6 |
| 20260901230501 | 83 | 43 | 3.0 | 6.0 | 0.00 | 0.03 | 0.03 | 87 | 1011.6 |
| 20260901230032 | 83 | 28 | 2.0 | 5.0 | 0.00 | 0.03 | 0.03 | 87 | 1011.4 |
| 20260901230001 | 84 | 329 | 2.0 | 5.0 | 0.00 | 0.03 | 0.03 | 87 | 1011.5 |
| 20260901225502 | 84 | 15 | 2.0 | 7.0 | 0.00 | 0.03 | 0.03 | 87 | 1011.5 |
| 20260901225002 | 84 | 40 | 2.0 | 7.0 | 0.00 | 0.03 | 0.03 | 87 | 1011.5 |
| 20260901224525 | 83 | 32 | 1.0 | 6.0 | 0.00 | 0.03 | 0.03 | 86 | 1011.4 |
| 20260901224501 | 84 | 351 | 2.0 | 6.0 | 0.00 | 0.03 | 0.03 | 86 | 1011.5 |
| 20260901224002 | 84 | 26 | 1.0 | 4.0 | 0.00 | 0.03 | 0.03 | 86 | 1011.5 |
| 20260901223504 | 84 | 14 | 1.0 | 5.0 | 0.00 | 0.03 | 0.03 | 86 | 1011.5 |
| 20260901223009 | 84 | 31 | 0.0 | 5.0 | 0.00 | 0.03 | 0.03 | 86 | 1011.4 |
| 20260901223003 | 84 | 31 | 1.0 | 6.0 | 0.00 | 0.03 | 0.03 | 86 | 1011.5 |
| 20260901222502 | 84 | 86 | 1.0 | 6.0 | 0.00 | 0.03 | 0.03 | 86 | 1011.5 |
| 20260901222258 | 84 | 96 | 2.0 | 6.0 | 0.00 | 0.03 | 0.03 | 86 | 1011.5 |
| 20260901221607 | 84 | 329 | 2.0 | 5.0 | 0.00 | 0.03 | 0.03 | 85 | 1011.4 |
| 20260901221503 | 84 | 24 | 2.0 | 6.0 | 0.00 | 0.03 | 0.03 | 85 | 1011.5 |
| 20260901221106 | 84 | 97 | 1.0 | 3.0 | 0.00 | 0.03 | 0.03 | 85 | 1011.5 |
| 20260901221038 | 84 | 67 | 1.0 | 4.0 | 0.00 | 0.03 | 0.03 | 85 | 1011.5 |
| 20260901220038 | 84 | 60 | 0.0 | 5.0 | 0.00 | 0.03 | 0.03 | 85 | 1011.2 |
| 20260901220006 | 84 | 90 | 2.0 | 7.0 | 0.00 | 0.03 | 0.03 | 85 | 1011.4 |
| 20260901215503 | 84 | 39 | 2.0 | 7.0 | 0.00 | 0.03 | 0.03 | 85 | 1011.4 |
| 20260901215003 | 84 | 333 | 2.0 | 7.0 | 0.00 | 0.03 | 0.03 | 85 | 1011.4 |
| 20260901214514 | 84 | 40 | 2.0 | 8.0 | 0.00 | 0.03 | 0.03 | 85 | 1011.0 |
| 20260901214502 | 84 | 23 | 3.0 | 8.0 | 0.00 | 0.03 | 0.03 | 85 | 1011.2 |
| 20260901214002 | 85 | 46 | 3.0 | 8.0 | 0.00 | 0.03 | 0.03 | 85 | 1011.2 |
| 20260901213502 | 85 | 23 | 3.0 | 8.0 | 0.00 | 0.03 | 0.03 | 84 | 1011.2 |
| 20260901213019 | 84 | 150 | 3.0 | 7.0 | 0.00 | 0.03 | 0.03 | 84 | 1010.9 |
| 20260901213005 | 85 | 150 | 2.0 | 7.0 | 0.00 | 0.03 | 0.03 | 84 | 1011.0 |
| 20260901212504 | 85 | 39 | 2.0 | 10.0 | 0.00 | 0.03 | 0.03 | 85 | 1011.0 |
| 20260901212005 | 85 | 44 | 3.0 | 10.0 | 0.00 | 0.03 | 0.03 | 85 | 1011.0 |
| 20260901211754 | 85 | 24 | 3.0 | 8.0 | 0.00 | 0.03 | 0.03 | 85 | 1011.3 |
| 20260901211004 | 85 | 33 | 3.0 | 8.0 | 0.00 | 0.03 | 0.03 | 84 | 1011.3 |
| 20260901210503 | 86 | 314 | 2.0 | 8.0 | 0.00 | 0.03 | 0.03 | 84 | 1011.3 |
| 20260901210009 | 85 | 36 | 1.0 | 8.0 | 0.00 | 0.03 | 0.03 | 84 | 1010.9 |
| 20260901210003 | 86 | 36 | 3.0 | 8.0 | 0.00 | 0.03 | 0.03 | 84 | 1011.1 |
| 20260901205754 | 86 | 63 | 3.0 | 8.0 | 0.00 | 0.03 | 0.03 | 84 | 1011.1 |
| 20260901205002 | 86 | 38 | 2.0 | 7.0 | 0.00 | 0.03 | 0.03 | 83 | 1011.1 |
| 20260901204754 | 86 | 347 | 2.0 | 7.0 | 0.00 | 0.03 | 0.03 | 82 | 1011.3 |
| 20260901204002 | 86 | 19 | 2.0 | 7.0 | 0.00 | 0.03 | 0.03 | 83 | 1011.3 |
| 20260901203502 | 86 | 318 | 4.0 | 10.0 | 0.00 | 0.03 | 0.03 | 83 | 1011.3 |
| 20260901203053 | 85 | 76 | 3.0 | 12.0 | 0.00 | 0.03 | 0.03 | 83 | 1011.2 |
| 20260901203002 | 86 | 65 | 5.0 | 13.0 | 0.00 | 0.03 | 0.03 | 83 | 1011.4 |
| 20260901202501 | 86 | 87 | 4.0 | 13.0 | 0.00 | 0.03 | 0.03 | 82 | 1011.4 |
| 20260901202307 | 86 | 81 | 3.0 | 9.0 | 0.00 | 0.03 | 0.03 | 84 | 1011.4 |
| 20260901201532 | 86 | 36 | 1.0 | 9.0 | 0.00 | 0.03 | 0.03 | 84 | 1011.4 |
| 20260901201501 | 86 | 35 | 3.0 | 9.0 | 0.00 | 0.03 | 0.03 | 84 | 1011.5 |
| 20260901201003 | 86 | 57 | 2.0 | 9.0 | 0.00 | 0.03 | 0.03 | 84 | 1011.5 |
| 20260901200757 | 86 | 73 | 2.0 | 7.0 | 0.00 | 0.03 | 0.03 | 84 | 1011.5 |
| 20260901200034 | 86 | 69 | 2.0 | 7.0 | 0.00 | 0.03 | 0.03 | 84 | 1011.5 |
| 20260901200001 | 86 | 72 | 2.0 | 7.0 | 0.00 | 0.03 | 0.03 | 84 | 1011.7 |
| 20260901195501 | 86 | 59 | 2.0 | 7.0 | 0.00 | 0.03 | 0.03 | 83 | 1011.7 |
| 20260901195007 | 86 | 40 | 2.0 | 5.0 | 0.00 | 0.03 | 0.03 | 83 | 1011.7 |
| 20260901194510 | 86 | 89 | 1.0 | 7.0 | 0.00 | 0.03 | 0.03 | 83 | 1011.4 |
| 20260901194504 | 86 | 89 | 2.0 | 7.0 | 0.00 | 0.03 | 0.03 | 83 | 1011.6 |
| 20260901194002 | 86 | 36 | 3.0 | 9.0 | 0.00 | 0.03 | 0.03 | 83 | 1011.6 |
| 20260901193750 | 86 | 61 | 3.0 | 9.0 | 0.00 | 0.03 | 0.03 | 82 | 1011.6 |
| 20260901193008 | 86 | 93 | 3.0 | 6.0 | 0.00 | 0.03 | 0.03 | 83 | 1011.6 |
| 20260901193003 | 86 | 93 | 3.0 | 7.0 | 0.00 | 0.03 | 0.03 | 83 | 1011.7 |
| 20260901192748 | 86 | 57 | 3.0 | 7.0 | 0.00 | 0.03 | 0.03 | 83 | 1011.7 |
| 20260901192249 | 86 | 15 | 3.0 | 10.0 | 0.00 | 0.03 | 0.03 | 83 | 1011.7 |
| 20260901191842 | 86 | 89 | 4.0 | 10.0 | 0.00 | 0.03 | 0.03 | 82 | 1011.9 |
| 20260901191540 | 86 | 32 | 4.0 | 10.0 | 0.00 | 0.03 | 0.03 | 83 | 1011.9 |
| 20260901191518 | 86 | 32 | 3.0 | 10.0 | 0.00 | 0.03 | 0.03 | 83 | 1011.8 |
| 20260901190504 | 86 | 52 | 3.0 | 9.0 | 0.00 | 0.03 | 0.03 | 82 | 1011.9 |
| 20260901190014 | 86 | 88 | 0.0 | 10.0 | 0.00 | 0.03 | 0.03 | 83 | 1011.9 |
| 20260901190005 | 87 | 88 | 3.0 | 10.0 | 0.00 | 0.03 | 0.03 | 83 | 1012.0 |
| 20260901185502 | 87 | 93 | 3.0 | 10.0 | 0.00 | 0.03 | 0.03 | 82 | 1012.0 |
| 20260901185001 | 87 | 85 | 3.0 | 8.0 | 0.00 | 0.03 | 0.03 | 81 | 1012.0 |
| 20260901184509 | 87 | 60 | 2.0 | 8.0 | 0.00 | 0.03 | 0.03 | 81 | 1012.1 |
| 20260901184504 | 87 | 60 | 4.0 | 8.0 | 0.00 | 0.03 | 0.03 | 81 | 1012.2 |
| 20260901184003 | 87 | 105 | 4.0 | 9.0 | 0.00 | 0.03 | 0.03 | 82 | 1012.2 |
| 20260901183747 | 87 | 85 | 4.0 | 9.0 | 0.00 | 0.03 | 0.03 | 80 | 1012.2 |
| 20260901183006 | 87 | 55 | 2.0 | 15.0 | 0.00 | 0.03 | 0.03 | 81 | 1012.4 |
| 20260901183001 | 88 | 55 | 4.0 | 15.0 | 0.00 | 0.03 | 0.03 | 81 | 1012.5 |
| 20260901182748 | 88 | 47 | 4.0 | 15.0 | 0.00 | 0.03 | 0.03 | 81 | 1012.5 |
| 20260901182002 | 88 | 71 | 3.0 | 7.0 | 0.00 | 0.03 | 0.03 | 77 | 1012.5 |
| 20260901181750 | 88 | 66 | 3.0 | 7.0 | 0.00 | 0.03 | 0.03 | 81 | 1012.6 |
| 20260901181002 | 88 | 62 | 3.0 | 7.0 | 0.00 | 0.03 | 0.03 | 80 | 1012.6 |
| 20260901180503 | 89 | 264 | 3.0 | 8.0 | 0.00 | 0.03 | 0.03 | 81 | 1012.6 |
| 20260901180055 | 88 | 32 | 3.0 | 8.0 | 0.00 | 0.03 | 0.03 | 80 | 1012.4 |
| 20260901180002 | 89 | 40 | 4.0 | 9.0 | 0.00 | 0.03 | 0.03 | 81 | 1012.5 |
| 20260901175502 | 88 | 324 | 4.0 | 9.0 | 0.00 | 0.03 | 0.03 | 81 | 1012.5 |
| 20260901175001 | 88 | 72 | 3.0 | 9.0 | 0.00 | 0.03 | 0.03 | 80 | 1012.5 |
| 20260901174530 | 87 | 38 | 2.0 | 10.0 | 0.00 | 0.03 | 0.03 | 82 | 1012.5 |
| 20260901174502 | 87 | 40 | 3.0 | 10.0 | 0.00 | 0.03 | 0.03 | 82 | 1012.6 |
| 20260901174003 | 88 | 339 | 3.0 | 10.0 | 0.00 | 0.03 | 0.03 | 81 | 1012.6 |
| 20260901173504 | 88 | 20 | 4.0 | 10.0 | 0.00 | 0.03 | 0.03 | 82 | 1012.6 |
| 20260901173029 | 87 | 44 | 3.0 | 10.0 | 0.00 | 0.03 | 0.03 | 81 | 1012.7 |
| 20260901173002 | 88 | 53 | 4.0 | 10.0 | 0.00 | 0.03 | 0.03 | 81 | 1012.8 |
| 20260901172752 | 88 | 62 | 3.0 | 11.0 | 0.00 | 0.03 | 0.03 | 81 | 1012.8 |
| 20260901172002 | 88 | 340 | 3.0 | 11.0 | 0.00 | 0.03 | 0.03 | 81 | 1012.8 |
| 20260901171535 | 88 | 5 | 2.0 | 8.0 | 0.00 | 0.03 | 0.03 | 81 | 1012.9 |
| 20260901171503 | 88 | 38 | 3.0 | 8.0 | 0.00 | 0.03 | 0.03 | 81 | 1013.1 |
| 20260901171256 | 89 | 28 | 3.0 | 8.0 | 0.00 | 0.03 | 0.03 | 80 | 1013.1 |
| 20260901170502 | 88 | 350 | 3.0 | 6.0 | 0.00 | 0.03 | 0.03 | 80 | 1013.1 |
| 20260901170031 | 88 | 44 | 2.0 | 8.0 | 0.00 | 0.03 | 0.03 | 80 | 1012.9 |
| 20260901170002 | 88 | 67 | 4.0 | 10.0 | 0.00 | 0.03 | 0.03 | 80 | 1013.1 |
| 20260901165502 | 88 | 42 | 4.0 | 10.0 | 0.00 | 0.03 | 0.03 | 79 | 1013.1 |
| 20260901165001 | 88 | 326 | 3.0 | 10.0 | 0.00 | 0.03 | 0.03 | 80 | 1013.1 |
| 20260901164520 | 87 | 45 | 2.0 | 8.0 | 0.00 | 0.03 | 0.03 | 80 | 1012.9 |
| 20260901164503 | 87 | 42 | 3.0 | 8.0 | 0.00 | 0.03 | 0.03 | 81 | 1013.1 |
| 20260901164252 | 88 | 49 | 4.0 | 11.0 | 0.00 | 0.03 | 0.03 | 79 | 1013.1 |
| 20260901163501 | 89 | 39 | 4.0 | 11.0 | 0.00 | 0.03 | 0.03 | 78 | 1013.1 |
| 20260901163014 | 89 | 43 | 2.0 | 10.0 | 0.00 | 0.03 | 0.03 | 79 | 1013.0 |
| 20260901163001 | 89 | 40 | 4.0 | 10.0 | 0.00 | 0.03 | 0.03 | 79 | 1013.1 |
| 20260901162501 | 89 | 46 | 4.0 | 10.0 | 0.00 | 0.03 | 0.03 | 77 | 1013.1 |
| 20260901162000 | 89 | 19 | 3.0 | 9.0 | 0.00 | 0.03 | 0.03 | 77 | 1013.1 |
| 20260901161513 | 88 | 13 | 1.0 | 6.0 | 0.00 | 0.03 | 0.03 | 76 | 1013.0 |
| 20260901161501 | 88 | 13 | 3.0 | 6.0 | 0.00 | 0.03 | 0.03 | 76 | 1013.1 |
| 20260901161004 | 88 | 25 | 3.0 | 8.0 | 0.00 | 0.03 | 0.03 | 77 | 1013.1 |
| 20260901160502 | 88 | 43 | 3.0 | 8.0 | 0.00 | 0.03 | 0.03 | 79 | 1013.1 |
| 20260901160107 | 88 | 49 | 4.0 | 8.0 | 0.00 | 0.03 | 0.03 | 78 | 1013.1 |
| 20260901160001 | 88 | 37 | 3.0 | 8.0 | 0.00 | 0.03 | 0.03 | 78 | 1013.2 |
| 20260901155501 | 88 | 34 | 3.0 | 8.0 | 0.00 | 0.03 | 0.03 | 80 | 1013.2 |
| 20260901155001 | 88 | 40 | 2.0 | 8.0 | 0.00 | 0.03 | 0.03 | 79 | 1013.2 |
| 20260901154533 | 88 | 28 | 1.0 | 6.0 | 0.00 | 0.03 | 0.03 | 81 | 1013.3 |
| 20260901154503 | 88 | 42 | 3.0 | 6.0 | 0.00 | 0.03 | 0.03 | 81 | 1013.5 |
| 20260901154002 | 87 | 74 | 3.0 | 7.0 | 0.00 | 0.03 | 0.03 | 81 | 1013.5 |
| 20260901153501 | 88 | 70 | 3.0 | 7.0 | 0.00 | 0.03 | 0.03 | 81 | 1013.5 |
| 20260901153022 | 87 | 62 | 2.0 | 7.0 | 0.00 | 0.03 | 0.03 | 80 | 1013.4 |
| 20260901153001 | 88 | 65 | 3.0 | 7.0 | 0.00 | 0.03 | 0.03 | 80 | 1013.5 |
| 20260901152501 | 88 | 327 | 3.0 | 9.0 | 0.00 | 0.03 | 0.03 | 80 | 1013.5 |
| 20260901152002 | 87 | 57 | 3.0 | 9.0 | 0.00 | 0.03 | 0.03 | 80 | 1013.5 |
| 20260901151754 | 87 | 67 | 2.0 | 7.0 | 0.00 | 0.03 | 0.03 | 80 | 1013.4 |
| 20260901151002 | 87 | 325 | 1.0 | 7.0 | 0.00 | 0.03 | 0.03 | 82 | 1013.4 |
| 20260901150504 | 86 | 324 | 1.0 | 5.0 | 0.00 | 0.03 | 0.03 | 83 | 1013.4 |
| 20260901150013 | 85 | 329 | 2.0 | 5.0 | 0.00 | 0.03 | 0.03 | 83 | 1013.2 |
| 20260901150004 | 86 | 329 | 3.0 | 5.0 | 0.00 | 0.03 | 0.03 | 83 | 1013.3 |
| 20260901145502 | 86 | 22 | 2.0 | 5.0 | 0.00 | 0.03 | 0.03 | 83 | 1013.3 |
| 20260901145004 | 86 | 34 | 1.0 | 3.0 | 0.00 | 0.03 | 0.03 | 83 | 1013.3 |
| 20260901144507 | 85 | 309 | 0.0 | 3.0 | 0.00 | 0.03 | 0.03 | 83 | 1013.0 |
| 20260901144502 | 86 | 309 | 1.0 | 5.0 | 0.00 | 0.03 | 0.03 | 83 | 1013.1 |
| 20260901144003 | 86 | 333 | 1.0 | 5.0 | 0.00 | 0.03 | 0.03 | 85 | 1013.1 |
| 20260901143502 | 86 | 331 | 1.0 | 3.0 | 0.00 | 0.03 | 0.03 | 85 | 1013.1 |
| 20260901143007 | 84 | 250 | 0.0 | 1.0 | 0.00 | 0.03 | 0.03 | 86 | 1013.0 |
| 20260901143002 | 85 | 250 | 0.0 | 1.0 | 0.00 | 0.03 | 0.03 | 86 | 1013.1 |
| 20260901142501 | 84 | 293 | 1.0 | 2.0 | 0.00 | 0.03 | 0.03 | 86 | 1013.1 |
| 20260901142004 | 84 | 287 | 1.0 | 4.0 | 0.00 | 0.03 | 0.03 | 85 | 1013.1 |
| 20260901141607 | 83 | 334 | 0.0 | 4.0 | 0.00 | 0.03 | 0.03 | 85 | 1012.9 |
| 20260901141546 | 84 | 329 | 3.0 | 7.0 | 0.00 | 0.03 | 0.03 | 85 | 1013.1 |
| 20260901141535 | 84 | 335 | 2.0 | 5.0 | 0.00 | 0.03 | 0.03 | 85 | 1013.1 |
| 20260901141524 | 83 | 335 | 1.0 | 4.0 | 0.00 | 0.03 | 0.03 | 85 | 1012.9 |
| 20260901140501 | 84 | 342 | 2.0 | 7.0 | 0.00 | 0.03 | 0.03 | 85 | 1013.1 |
| 20260901140114 | 83 | 37 | 1.0 | 4.0 | 0.00 | 0.03 | 0.03 | 87 | 1012.9 |
| 20260901140001 | 84 | 348 | 1.0 | 4.0 | 0.00 | 0.03 | 0.03 | 87 | 1013.1 |
| 20260901135500 | 83 | 27 | 1.0 | 2.0 | 0.00 | 0.03 | 0.03 | 87 | 1013.1 |
| 20260901135258 | 83 | 13 | 1.0 | 3.0 | 0.00 | 0.03 | 0.03 | 87 | 1013.1 |
| 20260901134530 | 83 | 15 | 0.0 | 3.0 | 0.00 | 0.03 | 0.03 | 87 | 1012.9 |
| 20260901134503 | 83 | 15 | 1.0 | 3.0 | 0.00 | 0.03 | 0.03 | 87 | 1013.0 |
| 20260901134001 | 84 | 26 | 1.0 | 3.0 | 0.00 | 0.03 | 0.03 | 87 | 1013.0 |
| 20260901133759 | 84 | 56 | 1.0 | 4.0 | 0.00 | 0.03 | 0.03 | 88 | 1013.0 |
| 20260901133027 | 83 | 329 | 1.0 | 4.0 | 0.00 | 0.03 | 0.03 | 88 | 1012.9 |
| 20260901133001 | 84 | 329 | 1.0 | 4.0 | 0.00 | 0.03 | 0.03 | 88 | 1013.0 |
| 20260901132502 | 83 | 33 | 1.0 | 4.0 | 0.00 | 0.03 | 0.03 | 88 | 1013.0 |
| 20260901132255 | 83 | 322 | 1.0 | 3.0 | 0.00 | 0.03 | 0.03 | 89 | 1013.0 |
| 20260901131511 | 82 | 29 | 1.0 | 3.0 | 0.00 | 0.03 | 0.03 | 89 | 1012.8 |
| 20260901131504 | 82 | 29 | 1.0 | 3.0 | 0.00 | 0.03 | 0.03 | 89 | 1013.0 |
| 20260901131255 | 82 | 324 | 1.0 | 4.0 | 0.00 | 0.03 | 0.03 | 90 | 1013.0 |
| 20260901130504 | 82 | 323 | 1.0 | 4.0 | 0.00 | 0.03 | 0.03 | 91 | 1013.0 |
| 20260901130009 | 81 | 321 | 0.0 | 3.0 | 0.00 | 0.03 | 0.03 | 91 | 1012.6 |
| 20260901130004 | 82 | 328 | 0.0 | 3.0 | 0.00 | 0.03 | 0.03 | 91 | 1012.7 |
| 20260901125607 | 81 | 13 | 1.0 | 4.0 | 0.00 | 0.03 | 0.03 | 92 | 1012.7 |
| 20260901125547 | 81 | 327 | 1.0 | 3.0 | 0.00 | 0.03 | 0.03 | 92 | 1012.7 |
| 20260901124753 | 81 | 323 | 1.0 | 4.0 | 0.00 | 0.03 | 0.03 | 92 | 1012.8 |
| 20260901124004 | 81 | 325 | 0.0 | 2.0 | 0.00 | 0.03 | 0.03 | 93 | 1012.8 |
| 20260901123503 | 81 | 342 | 0.0 | 2.0 | 0.00 | 0.03 | 0.03 | 93 | 1012.8 |
| 20260901123008 | 80 | 335 | 0.0 | 2.0 | 0.00 | 0.03 | 0.03 | 93 | 1012.5 |
| 20260901123003 | 80 | 335 | 0.0 | 2.0 | 0.00 | 0.03 | 0.03 | 93 | 1012.6 |
| 20260901122751 | 80 | 335 | 0.0 | 1.0 | 0.00 | 0.03 | 0.03 | 93 | 1012.6 |
| 20260901122002 | 80 | 335 | 1.0 | 2.0 | 0.00 | 0.03 | 0.03 | 94 | 1012.6 |
| 20260901121754 | 79 | 339 | 1.0 | 2.0 | 0.00 | 0.03 | 0.03 | 94 | 1012.5 |
| 20260901121002 | 79 | 332 | 1.0 | 3.0 | 0.00 | 0.03 | 0.03 | 94 | 1012.5 |
| 20260901120501 | 79 | 323 | 1.0 | 3.0 | 0.00 | 0.03 | 0.03 | 94 | 1012.5 |
| 20260901120044 | 78 | 329 | 0.0 | 2.0 | 0.00 | 0.03 | 0.03 | 94 | 1012.1 |
| 20260901120002 | 78 | 341 | 1.0 | 2.0 | 0.00 | 0.03 | 0.03 | 94 | 1012.2 |
| 20260901115501 | 78 | 194 | 0.0 | 2.0 | 0.00 | 0.03 | 0.03 | 94 | 1012.2 |
| 20260901115001 | 78 | 188 | 0.0 | 1.0 | 0.00 | 0.03 | 0.03 | 94 | 1012.2 |
| 20260901114533 | 77 | 186 | 0.0 | 1.0 | 0.00 | 0.03 | 0.03 | 94 | 1011.9 |
| 20260901114501 | 77 | 186 | 0.0 | 1.0 | 0.00 | 0.03 | 0.03 | 94 | 1012.0 |
| 20260901114002 | 77 | 185 | 0.0 | 0.0 | 0.00 | 0.03 | 0.03 | 94 | 1012.0 |
| 20260901113508 | 77 | 185 | 0.0 | 0.0 | 0.00 | 0.03 | 0.03 | 94 | 1012.0 |
| 20260901113018 | 76 | 185 | 0.0 | 0.0 | 0.00 | 0.03 | 0.03 | 94 | 1011.8 |
| 20260901112942 | 76 | 185 | 0.0 | 0.0 | 0.00 | 0.03 | 0.03 | 94 | 1011.9 |
| 20260901112431 | 76 | 185 | 0.0 | 0.0 | 0.00 | 0.03 | 0.03 | 94 | 1011.9 |
| 20260901111930 | 76 | 185 | 0.0 | 0.0 | 0.00 | 0.03 | 0.03 | 94 | 1011.9 |
| 20260901111502 | 76 | 185 | 0.0 | 0.0 | 0.00 | 0.03 | 0.03 | 94 | 1011.4 |
| 20260901111430 | 76 | 185 | 0.0 | 0.0 | 0.00 | 0.03 | 0.03 | 94 | 1011.5 |
| 20260901110930 | 76 | 185 | 0.0 | 0.0 | 0.00 | 0.03 | 0.03 | 94 | 1011.5 |
| 20260901110430 | 76 | 185 | 0.0 | 0.0 | 0.00 | 0.03 | 0.03 | 94 | 1011.5 |
| 20260901110039 | 76 | 185 | 0.0 | 0.0 | 0.00 | 0.03 | 0.03 | 94 | 1011.4 |
| 20260901105930 | 76 | 185 | 0.0 | 0.0 | 0.00 | 0.03 | 0.03 | 94 | 1011.5 |
| 20260901105723 | 76 | 185 | 0.0 | 0.0 | 0.00 | 0.03 | 0.03 | 94 | 1011.5 |
| 20260901104930 | 76 | 185 | 0.0 | 0.0 | 0.00 | 0.03 | 0.03 | 94 | 1011.5 |
| 20260901104718 | 76 | 185 | 0.0 | 0.0 | 0.00 | 0.03 | 0.03 | 94 | 1011.5 |
| 20260901104642 | 76 | 185 | 0.0 | 0.0 | 0.00 | 0.03 | 0.03 | 94 | 1011.4 |
| 20260901103931 | 76 | 185 | 0.0 | 0.0 | 0.00 | 0.03 | 0.03 | 94 | 1011.5 |
| 20260901103430 | 76 | 185 | 0.0 | 0.0 | 0.00 | 0.03 | 0.03 | 94 | 1011.5 |
| 20260901103014 | 76 | 185 | 0.0 | 0.0 | 0.00 | 0.03 | 0.03 | 94 | 1011.4 |
| 20260901102935 | 76 | 185 | 0.0 | 0.0 | 0.00 | 0.03 | 0.03 | 94 | 1011.5 |
| 20260901102430 | 76 | 185 | 0.0 | 0.0 | 0.00 | 0.03 | 0.03 | 94 | 1011.5 |
| 20260901101930 | 76 | 185 | 0.0 | 0.0 | 0.00 | 0.03 | 0.03 | 94 | 1011.5 |
| 20260901101509 | 76 | 185 | 0.0 | 0.0 | 0.00 | 0.03 | 0.03 | 94 | 1011.4 |
| 20260901101429 | 76 | 185 | 0.0 | 0.0 | 0.00 | 0.03 | 0.03 | 94 | 1011.5 |
| 20260901101018 | 76 | 185 | 0.0 | 0.0 | 0.00 | 0.03 | 0.03 | 94 | 1011.5 |
| 20260901101001 | 76 | 185 | 0.0 | 0.0 | 0.00 | 0.03 | 0.03 | 94 | 1011.5 |
| 20260901100002 | 76 | 185 | 0.0 | 0.0 | 0.00 | 0.03 | 0.03 | 94 | 1011.4 |
| 20260901095930 | 76 | 185 | 0.0 | 0.0 | 0.00 | 0.03 | 0.03 | 94 | 1011.5 |
| 20260901095429 | 76 | 185 | 0.0 | 0.0 | 0.00 | 0.03 | 0.03 | 94 | 1011.5 |
| 20260901095110 | 77 | 185 | 0.0 | 0.0 | 0.00 | 0.03 | 0.03 | 93 | 1011.5 |
| 20260901095043 | 76 | 185 | 0.0 | 0.0 | 0.00 | 0.03 | 0.03 | 94 | 1011.5 |
| 20260901094520 | 76 | 185 | 0.0 | 0.0 | 0.00 | 0.03 | 0.03 | 94 | 1011.3 |
| 20260901094502 | 77 | 185 | 0.0 | 0.0 | 0.00 | 0.03 | 0.03 | 94 | 1011.5 |
| 20260901093429 | 77 | 185 | 0.0 | 0.0 | 0.00 | 0.03 | 0.03 | 93 | 1011.5 |
| 20260901093037 | 76 | 185 | 0.0 | 0.0 | 0.00 | 0.03 | 0.03 | 93 | 1011.4 |
| 20260901092929 | 77 | 185 | 0.0 | 0.0 | 0.00 | 0.03 | 0.03 | 93 | 1011.5 |
| 20260901092431 | 77 | 185 | 0.0 | 0.0 | 0.00 | 0.03 | 0.03 | 93 | 1011.5 |
| 20260901091930 | 77 | 185 | 0.0 | 0.0 | 0.00 | 0.03 | 0.03 | 93 | 1011.5 |
| 20260901091544 | 76 | 185 | 0.0 | 1.0 | 0.00 | 0.03 | 0.03 | 93 | 1011.4 |
| 20260901091432 | 77 | 185 | 0.0 | 1.0 | 0.00 | 0.03 | 0.03 | 93 | 1011.5 |
| 20260901090929 | 77 | 185 | 0.0 | 1.0 | 0.00 | 0.03 | 0.03 | 93 | 1011.5 |
| 20260901090430 | 77 | 185 | 0.0 | 0.0 | 0.00 | 0.03 | 0.03 | 93 | 1011.5 |
| 20260901090216 | 77 | 185 | 0.0 | 0.0 | 0.00 | 0.03 | 0.03 | 93 | 1011.5 |
| 20260901090148 | 77 | 185 | 0.0 | 0.0 | 0.00 | 0.03 | 0.03 | 93 | 1011.3 |
| 20260901085430 | 77 | 185 | 0.0 | 0.0 | 0.00 | 0.03 | 0.03 | 93 | 1011.5 |
| 20260901084930 | 77 | 185 | 0.0 | 0.0 | 0.00 | 0.03 | 0.03 | 93 | 1011.5 |
| 20260901084503 | 77 | 185 | 0.0 | 0.0 | 0.00 | 0.03 | 0.03 | 93 | 1011.3 |
| 20260901084430 | 77 | 185 | 0.0 | 0.0 | 0.00 | 0.03 | 0.03 | 93 | 1011.5 |
| 20260901083928 | 77 | 185 | 0.0 | 0.0 | 0.00 | 0.03 | 0.03 | 93 | 1011.5 |
| 20260901083429 | 77 | 185 | 0.0 | 0.0 | 0.00 | 0.03 | 0.03 | 93 | 1011.5 |
| 20260901083219 | 77 | 185 | 0.0 | 0.0 | 0.00 | 0.03 | 0.03 | 93 | 1011.4 |
| 20260901083150 | 77 | 185 | 0.0 | 0.0 | 0.00 | 0.03 | 0.03 | 93 | 1011.3 |
| 20260901082421 | 78 | 185 | 0.0 | 0.0 | 0.00 | 0.03 | 0.03 | 93 | 1011.4 |
| 20260901081921 | 78 | 185 | 0.0 | 0.0 | 0.00 | 0.03 | 0.03 | 93 | 1011.4 |
| 20260901081600 | 77 | 185 | 0.0 | 1.0 | 0.00 | 0.03 | 0.03 | 93 | 1011.3 |
| 20260901081418 | 78 | 185 | 0.0 | 1.0 | 0.00 | 0.03 | 0.03 | 93 | 1011.5 |
| 20260901080916 | 78 | 185 | 0.0 | 1.0 | 0.00 | 0.03 | 0.03 | 93 | 1011.5 |
| 20260901080415 | 78 | 182 | 0.0 | 0.0 | 0.00 | 0.03 | 0.03 | 93 | 1011.5 |
| 20260901080112 | 77 | 182 | 0.0 | 0.0 | 0.00 | 0.03 | 0.03 | 93 | 1011.4 |
| 20260901075912 | 78 | 182 | 0.0 | 0.0 | 0.00 | 0.03 | 0.03 | 93 | 1011.5 |
| 20260901075410 | 78 | 182 | 0.0 | 0.0 | 0.00 | 0.03 | 0.03 | 93 | 1011.5 |
| 20260901074909 | 78 | 182 | 0.0 | 1.0 | 0.00 | 0.03 | 0.03 | 93 | 1011.5 |
| 20260901074523 | 78 | 182 | 0.0 | 1.0 | 0.00 | 0.03 | 0.03 | 93 | 1011.7 |
| 20260901074407 | 78 | 182 | 0.0 | 1.0 | 0.00 | 0.03 | 0.03 | 93 | 1011.8 |
| 20260901074146 | 78 | 182 | 0.0 | 0.0 | 0.00 | 0.03 | 0.03 | 93 | 1011.8 |
| 20260901073402 | 78 | 182 | 0.0 | 0.0 | 0.00 | 0.03 | 0.03 | 93 | 1011.8 |
| 20260901073142 | 78 | 182 | 0.0 | 0.0 | 0.00 | 0.03 | 0.03 | 93 | 1011.9 |
| 20260901073115 | 78 | 182 | 0.0 | 0.0 | 0.00 | 0.03 | 0.03 | 93 | 1011.8 |
| 20260901072402 | 78 | 182 | 0.0 | 0.0 | 0.00 | 0.03 | 0.03 | 93 | 1011.9 |
| 20260901071902 | 78 | 182 | 0.0 | 0.0 | 0.00 | 0.03 | 0.03 | 93 | 1011.9 |
| 20260901071550 | 78 | 182 | 0.0 | 0.0 | 0.00 | 0.03 | 0.03 | 93 | 1011.8 |
| 20260901071402 | 78 | 182 | 0.0 | 0.0 | 0.00 | 0.03 | 0.03 | 93 | 1011.9 |
| 20260901070901 | 78 | 182 | 0.0 | 0.0 | 0.00 | 0.03 | 0.03 | 93 | 1011.9 |
| 20260901070400 | 78 | 182 | 0.0 | 0.0 | 0.00 | 0.03 | 0.03 | 93 | 1011.9 |
| 20260901070036 | 78 | 182 | 0.0 | 0.0 | 0.00 | 0.03 | 0.03 | 93 | 1011.9 |
| 20260901065902 | 78 | 182 | 0.0 | 0.0 | 0.00 | 0.03 | 0.03 | 93 | 1012.0 |
| 20260901065652 | 78 | 182 | 0.0 | 0.0 | 0.00 | 0.03 | 0.03 | 93 | 1012.0 |
| 20260901064901 | 78 | 182 | 0.0 | 0.0 | 0.00 | 0.03 | 0.03 | 93 | 1012.0 |
| 20260901064521 | 78 | 182 | 0.0 | 0.0 | 0.00 | 0.03 | 0.03 | 93 | 1012.1 |
| 20260901064401 | 78 | 182 | 0.0 | 0.0 | 0.00 | 0.03 | 0.03 | 93 | 1012.2 |
| 20260901063901 | 79 | 182 | 0.0 | 0.0 | 0.00 | 0.03 | 0.03 | 93 | 1012.2 |
| 20260901063402 | 79 | 182 | 0.0 | 0.0 | 0.00 | 0.03 | 0.03 | 93 | 1012.2 |
| 20260901063004 | 78 | 182 | 0.0 | 0.0 | 0.00 | 0.03 | 0.03 | 93 | 1012.3 |
| 20260901062902 | 79 | 182 | 0.0 | 0.0 | 0.00 | 0.03 | 0.03 | 93 | 1012.4 |
| 20260901062403 | 79 | 182 | 0.0 | 1.0 | 0.00 | 0.03 | 0.03 | 93 | 1012.4 |
| 20260901061904 | 79 | 180 | 0.0 | 1.0 | 0.01 | 0.03 | 0.03 | 93 | 1012.4 |
| 20260901061504 | 78 | 179 | 0.0 | 1.0 | 0.01 | 0.03 | 0.03 | 93 | 1012.2 |
| 20260901061404 | 79 | 179 | 0.0 | 0.0 | 0.01 | 0.03 | 0.03 | 93 | 1012.3 |
| 20260901060903 | 79 | 179 | 0.0 | 0.0 | 0.03 | 0.03 | 0.03 | 93 | 1012.3 |
| 20260901060402 | 79 | 179 | 0.0 | 0.0 | 0.03 | 0.03 | 0.03 | 93 | 1012.3 |
| 20260901060057 | 79 | 179 | 0.0 | 0.0 | 0.03 | 0.03 | 0.03 | 93 | 1012.4 |
| 20260901055901 | 79 | 179 | 0.0 | 0.0 | 0.03 | 0.03 | 0.03 | 93 | 1012.6 |
| 20260901055401 | 79 | 179 | 0.0 | 0.0 | 0.03 | 0.03 | 0.03 | 93 | 1012.6 |
| 20260901054902 | 79 | 179 | 0.0 | 0.0 | 0.03 | 0.03 | 0.03 | 92 | 1012.6 |
| 20260901054651 | 79 | 179 | 0.0 | 0.0 | 0.03 | 0.03 | 0.03 | 92 | 1012.7 |
| 20260901054620 | 79 | 179 | 0.0 | 0.0 | 0.03 | 0.03 | 0.03 | 92 | 1012.6 |
| 20260901053902 | 79 | 179 | 0.0 | 1.0 | 0.03 | 0.03 | 0.03 | 93 | 1012.7 |
| 20260901053401 | 79 | 179 | 0.0 | 1.0 | 0.03 | 0.03 | 0.03 | 92 | 1012.7 |
| 20260901053037 | 79 | 123 | 0.0 | 2.0 | 0.03 | 0.03 | 0.03 | 92 | 1012.7 |
| 20260901052851 | 80 | 123 | 0.0 | 2.0 | 0.03 | 0.03 | 0.03 | 92 | 1012.9 |
| 20260901052350 | 80 | 123 | 0.0 | 2.0 | 0.03 | 0.03 | 0.03 | 93 | 1012.9 |
| 20260901051849 | 79 | 311 | 0.0 | 1.0 | 0.02 | 0.02 | 0.02 | 92 | 1012.9 |
| 20260901051523 | 79 | 338 | 0.0 | 1.0 | 0.02 | 0.02 | 0.02 | 92 | 1012.9 |
| 20260901051351 | 79 | 355 | 0.0 | 1.0 | 0.01 | 0.01 | 0.00 | 92 | 1013.0 |
| 20260901050851 | 79 | 355 | 0.0 | 1.0 | 0.00 | 0.00 | 0.00 | 92 | 1013.0 |
| 20260901050350 | 79 | 355 | 0.0 | 1.0 | 0.00 | 0.00 | 0.00 | 92 | 1013.0 |
| 20260901050141 | 79 | 355 | 0.0 | 1.0 | 0.00 | 0.00 | 0.00 | 92 | 1013.1 |
| 20260901050106 | 79 | 355 | 0.0 | 1.0 | 0.00 | 0.00 | 0.00 | 92 | 1012.9 |
| 20260901045350 | 79 | 355 | 0.0 | 1.0 | 0.00 | 0.00 | 0.00 | 92 | 1013.1 |
| 20260901045129 | 80 | 355 | 0.0 | 1.0 | 0.00 | 0.00 | 0.00 | 92 | 1013.1 |
| 20260901044631 | 80 | 355 | 0.0 | 0.0 | 0.00 | 0.00 | 0.00 | 92 | 1013.1 |
| 20260901044610 | 79 | 355 | 0.0 | 0.0 | 0.00 | 0.00 | 0.00 | 92 | 1012.9 |
| 20260901043831 | 80 | 355 | 0.0 | 0.0 | 0.00 | 0.00 | 0.00 | 92 | 1013.1 |
| 20260901043622 | 80 | 355 | 0.0 | 0.0 | 0.00 | 0.00 | 0.00 | 92 | 1013.1 |
| 20260901043035 | 79 | 355 | 0.0 | 0.0 | 0.00 | 0.00 | 0.00 | 92 | 1012.9 |
| 20260901042832 | 80 | 355 | 0.0 | 0.0 | 0.00 | 0.00 | 0.00 | 92 | 1013.1 |
| 20260901042332 | 80 | 355 | 0.0 | 0.0 | 0.00 | 0.00 | 0.00 | 92 | 1013.1 |
| 20260901041830 | 80 | 355 | 0.0 | 0.0 | 0.00 | 0.00 | 0.00 | 92 | 1013.1 |
| 20260901041619 | 80 | 355 | 0.0 | 0.0 | 0.00 | 0.00 | 0.00 | 92 | 1013.1 |
| 20260901041544 | 79 | 355 | 0.0 | 0.0 | 0.00 | 0.00 | 0.00 | 92 | 1012.9 |
| 20260901040831 | 80 | 355 | 0.0 | 0.0 | 0.00 | 0.00 | 0.00 | 91 | 1013.1 |
| 20260901040331 | 80 | 355 | 0.0 | 0.0 | 0.00 | 0.00 | 0.00 | 91 | 1013.1 |
| 20260901040037 | 79 | 355 | 0.0 | 0.0 | 0.00 | 0.00 | 0.00 | 91 | 1012.9 |
| 20260901035832 | 80 | 355 | 0.0 | 0.0 | 0.00 | 0.00 | 0.00 | 91 | 1013.1 |
| 20260901035331 | 80 | 355 | 0.0 | 0.0 | 0.00 | 0.00 | 0.00 | 91 | 1013.1 |
| 20260901034831 | 80 | 355 | 0.0 | 0.0 | 0.00 | 0.00 | 0.00 | 91 | 1013.1 |
| 20260901034534 | 80 | 355 | 0.0 | 0.0 | 0.00 | 0.00 | 0.00 | 91 | 1013.0 |
| 20260901034331 | 80 | 355 | 0.0 | 0.0 | 0.00 | 0.00 | 0.00 | 91 | 1013.1 |
| 20260901033830 | 80 | 355 | 0.0 | 0.0 | 0.00 | 0.00 | 0.00 | 91 | 1013.1 |
| 20260901033330 | 80 | 355 | 0.0 | 0.0 | 0.00 | 0.00 | 0.00 | 91 | 1013.1 |
| 20260901033035 | 80 | 355 | 0.0 | 0.0 | 0.00 | 0.00 | 0.00 | 91 | 1013.1 |
| 20260901032830 | 80 | 355 | 0.0 | 0.0 | 0.00 | 0.00 | 0.00 | 91 | 1013.3 |
| 20260901032331 | 80 | 355 | 0.0 | 0.0 | 0.00 | 0.00 | 0.00 | 91 | 1013.3 |
| 20260901031831 | 80 | 355 | 0.0 | 0.0 | 0.00 | 0.00 | 0.00 | 91 | 1013.3 |
| 20260901031613 | 80 | 355 | 0.0 | 1.0 | 0.00 | 0.00 | 0.00 | 91 | 1013.2 |
| 20260901031548 | 80 | 355 | 0.0 | 0.0 | 0.00 | 0.00 | 0.00 | 91 | 1013.1 |
| 20260901030824 | 80 | 355 | 0.0 | 1.0 | 0.00 | 0.00 | 0.00 | 91 | 1013.2 |
| 20260901030322 | 80 | 355 | 0.0 | 1.0 | 0.00 | 0.00 | 0.00 | 91 | 1013.2 |
| 20260901030004 | 80 | 355 | 0.0 | 1.0 | 0.00 | 0.00 | 0.00 | 91 | 1013.3 |
| 20260901025823 | 80 | 355 | 0.0 | 1.0 | 0.00 | 0.00 | 0.00 | 91 | 1013.4 |
| 20260901025321 | 80 | 355 | 0.0 | 0.0 | 0.00 | 0.00 | 0.00 | 91 | 1013.4 |
| 20260901025116 | 80 | 355 | 0.0 | 0.0 | 0.00 | 0.00 | 0.00 | 91 | 1013.4 |
| 20260901024549 | 80 | 355 | 0.0 | 0.0 | 0.00 | 0.00 | 0.00 | 91 | 1013.4 |
| 20260901024318 | 80 | 355 | 0.0 | 0.0 | 0.00 | 0.00 | 0.00 | 91 | 1013.6 |
| 20260901023816 | 80 | 355 | 0.0 | 0.0 | 0.00 | 0.00 | 0.00 | 91 | 1013.6 |
| 20260901023316 | 80 | 355 | 0.0 | 0.0 | 0.00 | 0.00 | 0.00 | 91 | 1013.6 |
| 20260901023034 | 80 | 355 | 0.0 | 0.0 | 0.00 | 0.00 | 0.00 | 91 | 1013.1 |
| 20260901022816 | 80 | 355 | 0.0 | 0.0 | 0.00 | 0.00 | 0.00 | 91 | 1013.3 |
| 20260901022312 | 80 | 355 | 0.0 | 0.0 | 0.00 | 0.00 | 0.00 | 91 | 1013.3 |
| 20260901022106 | 80 | 355 | 0.0 | 0.0 | 0.00 | 0.00 | 0.00 | 91 | 1013.3 |
| 20260901021514 | 80 | 355 | 0.0 | 0.0 | 0.00 | 0.00 | 0.00 | 91 | 1012.9 |
| 20260901021305 | 80 | 355 | 0.0 | 0.0 | 0.00 | 0.00 | 0.00 | 91 | 1013.1 |
| 20260901020802 | 80 | 355 | 0.0 | 0.0 | 0.00 | 0.00 | 0.00 | 91 | 1013.1 |
| 20260901020304 | 80 | 355 | 0.0 | 0.0 | 0.00 | 0.00 | 0.00 | 91 | 1013.1 |
| 20260901020011 | 80 | 355 | 0.0 | 0.0 | 0.00 | 0.00 | 0.00 | 91 | 1012.8 |
| 20260901015806 | 80 | 355 | 0.0 | 0.0 | 0.00 | 0.00 | 0.00 | 91 | 1013.0 |
| 20260901015549 | 80 | 355 | 0.0 | 0.0 | 0.00 | 0.00 | 0.00 | 90 | 1013.0 |
| 20260901015103 | 80 | 355 | 0.0 | 1.0 | 0.00 | 0.00 | 0.00 | 90 | 1013.0 |
| 20260901014541 | 80 | 355 | 0.0 | 1.0 | 0.00 | 0.00 | 0.00 | 90 | 1012.5 |
| 20260901014302 | 80 | 355 | 0.0 | 1.0 | 0.00 | 0.00 | 0.00 | 90 | 1012.6 |
| 20260901013802 | 81 | 355 | 0.0 | 2.0 | 0.00 | 0.00 | 0.00 | 90 | 1012.6 |
| 20260901013303 | 81 | 355 | 0.0 | 2.0 | 0.00 | 0.00 | 0.00 | 90 | 1012.6 |
| 20260901013034 | 80 | 355 | 0.0 | 2.0 | 0.00 | 0.00 | 0.00 | 90 | 1012.6 |
| 20260901012802 | 81 | 0 | 0.0 | 1.0 | 0.00 | 0.00 | 0.00 | 90 | 1012.7 |
| 20260901012555 | 81 | 46 | 0.0 | 1.0 | 0.00 | 0.00 | 0.00 | 90 | 1012.7 |
| 20260901011803 | 81 | 46 | 0.0 | 1.0 | 0.00 | 0.00 | 0.00 | 90 | 1012.7 |
| 20260901011530 | 81 | 45 | 0.0 | 1.0 | 0.00 | 0.00 | 0.00 | 90 | 1012.5 |
| 20260901011302 | 81 | 46 | 0.0 | 1.0 | 0.00 | 0.00 | 0.00 | 90 | 1012.7 |
| 20260901010801 | 81 | 45 | 0.0 | 0.0 | 0.00 | 0.00 | 0.00 | 90 | 1012.7 |
| 20260901010301 | 81 | 45 | 0.0 | 0.0 | 0.00 | 0.00 | 0.00 | 90 | 1012.7 |
| 20260901010023 | 81 | 46 | 0.0 | 0.0 | 0.00 | 0.00 | 0.00 | 90 | 1012.4 |
| 20260901005802 | 81 | 46 | 0.0 | 0.0 | 0.00 | 0.00 | 0.00 | 90 | 1012.6 |